Weather History for KSJX - October, 2012

Change the Weather History Date:

Thursday, October 18, 2012

  Actual Average Record
Temperature  
Mean Temperature 54 °F -  
Max Temperature 60 °F 53 °F 72 °F (1963)
Min Temperature 48 °F 38 °F 25 °F (1952)
Degree Days  
Heating Degree Days 11    
Growing Degree Days 4 (Base 50)    
Moisture  
Dew Point 49 °F    
Average Humidity 80    
Maximum Humidity 89    
Minimum Humidity 69    
Precipitation  
Precipitation 0.00 in - - ()
Sea Level Pressure  
Sea Level Pressure 29.37 in    
Wind  
Wind Speed 11 mph (SSE)    
Max Wind Speed 15 mph    
Max Gust Speed 24 mph    
Visibility 10 miles    
Events Rain    
Averages and records for this station are not official NWS values.
T = Trace of Precipitation, MM = Missing Value Source: NWS Daily Summary

Daily Weather History Graph

Daily Weather History Graph

Search for Another Location

Airport or City:

Trip Planner

Search our weather history database for the weather conditions in past years. The results will help you decide how hot, cold, wet, or windy it might be!

Date:

Astronomy

Oct. 18, 2012 Rise Set
Actual Time 8:03 AM EDT 6:50 PM EDT
Civil Twilight 7:33 AM EDT 7:20 PM EDT
Nautical Twilight 6:58 AM EDT 7:54 PM EDT
Astronomical Twilight 6:24 AM EDT 8:29 PM EDT
Moon 11:55 AM EDT (10/18) 9:12 PM EDT (10/18)
Length of Visible Light 11h 47m
Length of Day
10h 46m
Waxing Crescent, 14% of the Moon is Illuminated
Oct 18
Waxing Crescent
Oct 21
First Quarter
Oct 29
Full
Nov 6
Last Quarter
Nov 13
New

Hourly Weather History & Observations

Time (EDT) Temp. Dew Point Humidity Pressure Visibility Wind Dir Wind Speed Gust Speed Precip Events Conditions
12:15 AM 59.4 °F 54.0 °F 82% 29.41 in 10.0 mi SSE 10.4 mph 18.4 mph N/A Rain Light Rain
12:35 AM 59.4 °F 53.8 °F 82% 29.40 in 10.0 mi SSE 12.7 mph 19.6 mph N/A   Overcast
12:55 AM 59.5 °F 53.6 °F 81% 29.40 in 10.0 mi SSE 12.7 mph 20.7 mph N/A   Light Drizzle
1:15 AM 59.4 °F 53.8 °F 82% 29.40 in 10.0 mi SE 11.5 mph 19.6 mph N/A   Drizzle
1:35 AM 59.4 °F 53.8 °F 82% 29.39 in 10.0 mi SE 10.4 mph 17.3 mph N/A   Drizzle
1:55 AM 59.4 °F 53.2 °F 80% 29.38 in 10.0 mi SE 10.4 mph 16.1 mph N/A   Overcast
2:15 AM 58.8 °F 53.8 °F 83% 29.38 in 10.0 mi SE 12.7 mph 19.6 mph N/A Rain Rain
2:35 AM 58.3 °F 53.8 °F 85% 29.37 in 10.0 mi SE 8.1 mph - N/A   Overcast
2:55 AM 59.0 °F 53.8 °F 83% 29.36 in 10.0 mi SE 12.7 mph 23.0 mph N/A   Overcast
3:15 AM 59.2 °F 54.0 °F 83% 29.35 in 10.0 mi ESE 11.5 mph - N/A   Overcast
3:35 AM 59.5 °F 53.6 °F 81% 29.33 in 10.0 mi ESE 12.7 mph 17.3 mph N/A   Overcast
3:55 AM 59.9 °F 52.9 °F 78% 29.32 in 10.0 mi ESE 15.0 mph 18.4 mph N/A   Mostly Cloudy
4:15 AM 59.9 °F 52.9 °F 78% 29.30 in 10.0 mi ESE 15.0 mph 21.9 mph N/A   Mostly Cloudy
4:35 AM 60.8 °F 52.7 °F 75% 29.30 in 10.0 mi SE 15.0 mph 24.2 mph N/A Rain Light Rain
4:55 AM 59.4 °F 53.4 °F 81% 29.30 in 10.0 mi SE 11.5 mph 20.7 mph N/A Rain Light Rain
5:15 AM 59.0 °F 53.6 °F 82% 29.30 in 10.0 mi SE 11.5 mph 16.1 mph N/A Rain Rain
5:35 AM 59.0 °F 53.2 °F 81% 29.29 in 10.0 mi ESE 10.4 mph 17.3 mph N/A   Mostly Cloudy
5:55 AM 59.4 °F 52.9 °F 79% 29.29 in 10.0 mi ESE 11.5 mph 23.0 mph N/A   Mostly Cloudy
6:15 AM 59.9 °F 52.7 °F 77% 29.29 in 10.0 mi ESE 15.0 mph 20.7 mph N/A   Scattered Clouds
6:35 AM 59.9 °F 52.7 °F 77% 29.28 in 10.0 mi SE 11.5 mph 18.4 mph N/A   Mostly Cloudy
6:55 AM 59.9 °F 52.2 °F 76% 29.28 in 10.0 mi ESE 9.2 mph 16.1 mph N/A   Overcast
7:35 AM 59.9 °F 52.3 °F 76% 29.28 in 10.0 mi East 12.7 mph 19.6 mph N/A   Overcast
7:55 AM 59.0 °F 52.7 °F 80% 29.27 in 10.0 mi East 10.4 mph - N/A   Overcast
8:15 AM 59.2 °F 52.5 °F 79% 29.27 in 10.0 mi ESE 10.4 mph 19.6 mph N/A Rain Light Rain
8:36 AM 59.2 °F 52.0 °F 77% 29.27 in 10.0 mi ESE 13.8 mph 18.4 mph N/A   Overcast
8:55 AM 59.2 °F 52.0 °F 77% 29.26 in 10.0 mi ESE 13.8 mph 20.7 mph N/A   Overcast
9:15 AM 59.4 °F 51.4 °F 75% 29.25 in 10.0 mi ESE 13.8 mph - N/A   Overcast
9:35 AM 57.6 °F 52.0 °F 82% 29.26 in 10.0 mi ESE 11.5 mph - N/A Rain Light Rain
9:55 AM 57.2 °F 52.3 °F 84% 29.25 in 10.0 mi ESE 11.5 mph 19.6 mph N/A Rain Rain
10:15 AM 57.6 °F 52.0 °F 82% 29.25 in 10.0 mi ESE 12.7 mph 21.9 mph N/A   Overcast
10:35 AM 58.1 °F 51.8 °F 80% 29.25 in 10.0 mi ESE 13.8 mph 19.6 mph N/A   Overcast
10:55 AM 57.6 °F 51.8 °F 81% 29.25 in 10.0 mi ESE 13.8 mph 19.6 mph N/A Rain Light Rain
11:15 AM 57.4 °F 51.4 °F 81% 29.25 in 10.0 mi ESE 10.4 mph 18.4 mph N/A   Drizzle
11:35 AM 57.6 °F 51.4 °F 80% 29.26 in 10.0 mi South 11.5 mph 19.6 mph N/A   Overcast
11:55 AM 53.6 °F 50.0 °F 88% 29.28 in 7.0 mi SW 12.7 mph 21.9 mph N/A Rain Light Rain
12:15 PM 53.6 °F 50.5 °F 89% 29.28 in 10.0 mi SSW 8.1 mph - N/A Rain Rain
12:35 PM 53.8 °F 50.4 °F 88% 29.29 in 10.0 mi South 8.1 mph 17.3 mph N/A   Light Drizzle
12:55 PM 53.6 °F 49.6 °F 86% 29.30 in 10.0 mi South 6.9 mph - N/A Rain Rain
1:15 PM 53.6 °F 49.6 °F 86% 29.31 in 10.0 mi South 6.9 mph - N/A Rain Rain
1:35 PM 54.5 °F 50.0 °F 85% 29.31 in 10.0 mi South 8.1 mph - N/A Rain Light Rain
1:55 PM 53.8 °F 49.8 °F 86% 29.32 in 10.0 mi South 6.9 mph - N/A Rain Light Rain
2:15 PM 54.1 °F 50.4 °F 87% 29.32 in 10.0 mi South 6.9 mph - N/A Rain Light Rain
2:35 PM 53.4 °F 48.4 °F 83% 29.33 in 10.0 mi SSE 8.1 mph - N/A Rain Light Rain
2:55 PM 53.6 °F 48.7 °F 84% 29.34 in 10.0 mi SSE 6.9 mph - N/A   Overcast
3:15 PM 51.8 °F 47.3 °F 85% 29.36 in 4.0 mi South 6.9 mph 19.6 mph N/A Rain Rain
3:35 PM 51.6 °F 48.0 °F 87% 29.37 in 5.0 mi South 11.5 mph 17.3 mph N/A   Drizzle
3:55 PM 50.9 °F 47.3 °F 87% 29.38 in 7.0 mi South 4.6 mph - N/A Rain Light Rain
4:15 PM 50.9 °F 47.1 °F 87% 29.39 in 10.0 mi South 4.6 mph - N/A   Light Drizzle
4:35 PM 50.5 °F 46.6 °F 86% 29.39 in 5.0 mi SSW 6.9 mph 16.1 mph N/A Rain Light Rain
4:55 PM 49.5 °F 45.5 °F 86% 29.41 in 4.0 mi South 9.2 mph 18.4 mph N/A Rain Heavy Rain
5:15 PM 49.3 °F 45.5 °F 87% 29.42 in 5.0 mi South 5.8 mph - N/A Rain Rain
5:35 PM 49.5 °F 45.5 °F 86% 29.44 in 10.0 mi SSE 5.8 mph - N/A Rain Light Rain
5:55 PM 49.5 °F 44.6 °F 83% 29.45 in 10.0 mi South 9.2 mph - N/A   Drizzle
6:15 PM 49.5 °F 44.2 °F 82% 29.46 in 10.0 mi South 5.8 mph - N/A   Overcast
6:35 PM 50.0 °F 43.7 °F 79% 29.48 in 10.0 mi South 8.1 mph - N/A   Overcast
6:55 PM 49.5 °F 42.6 °F 77% 29.48 in 10.0 mi SSE 8.1 mph - N/A   Mostly Cloudy
7:15 PM 49.1 °F 41.9 °F 76% 29.49 in 10.0 mi South 4.6 mph - N/A   Scattered Clouds
7:35 PM 49.3 °F 41.9 °F 76% 29.50 in 10.0 mi South 5.8 mph - N/A   Scattered Clouds
7:55 PM 49.8 °F 41.2 °F 72% 29.50 in 10.0 mi South 11.5 mph 19.6 mph N/A   Mostly Cloudy
8:15 PM 49.5 °F 40.8 °F 72% 29.52 in 10.0 mi South 10.4 mph 16.1 mph N/A   Mostly Cloudy
8:35 PM 49.8 °F 40.8 °F 71% 29.52 in 10.0 mi SSE 6.9 mph - N/A   Mostly Cloudy
8:55 PM 50.0 °F 40.6 °F 70% 29.53 in 10.0 mi South 5.8 mph - N/A   Overcast
9:15 PM 50.0 °F 40.6 °F 70% 29.53 in 10.0 mi SSE 5.8 mph - N/A   Overcast
9:35 PM 50.0 °F 41.0 °F 71% 29.54 in 10.0 mi SSE 9.2 mph - N/A   Overcast
9:55 PM 50.0 °F 40.3 °F 69% 29.55 in 10.0 mi SE 4.6 mph - N/A   Overcast
10:35 PM 49.6 °F 41.7 °F 74% 29.56 in 10.0 mi ESE 9.2 mph - N/A   Overcast
10:55 PM 49.6 °F 40.3 °F 70% 29.56 in 10.0 mi SE 8.1 mph 18.4 mph N/A   Mostly Cloudy
11:15 PM 49.6 °F 40.5 °F 71% 29.56 in 10.0 mi SSE 9.2 mph 19.6 mph N/A   Mostly Cloudy
11:35 PM 48.6 °F 39.7 °F 72% 29.57 in 10.0 mi SSE 8.1 mph - N/A   Scattered Clouds
11:55 PM 48.4 °F 39.6 °F 72% 29.57 in 10.0 mi SE 10.4 mph - N/A   Clear